Lapse_Rate
2.1 2.5 2.2 2.1 1.7 1.5 2.5 2.3 2.7 3.0 2.5 4.7 5.6 5.6 5.0 4.9 2.7 2.5 3.1 4.4 4.1 4.0
1.0 0.9 0.4 1.3 1.9 3.0 2.6 3.4 3.5 3.0 4.3 4.9 6.2 7.2 5.1 3.3 3.4 3.1 3.7 3.7 3.7 3.9
0.8 0.9 1.7 1.7 2.0 3.0 2.7 2.3 2.0 3.5 3.8 5.1 5.9 4.7 3.8 2.9 3.5 3.7 3.4 3.4 4.1 4.7
0.3 1.7 1.6 2.1 2.0 2.0 2.0 2.2 3.5 3.2 4.6 4.2 4.0 3.7 3.2 3.2 3.9 4.2 4.1 4.4 4.7 5.2
1.3 1.9 1.9 2.2 2.1 2.3 2.7 3.4 3.7 4.3 4.2 4.6 4.8 3.8 3.6 4.0 4.6 4.1 4.2 4.5 4.4 5.0
1.9 2.0 2.2 2.5 3.2 4.0 3.6 4.1 4.1 4.0 5.2 5.7 5.0 4.2 4.0 3.9 4.0 4.0 4.1 4.3 4.4 5.1
2.0 2.5 3.2 3.3 3.5 3.9 4.1 4.2 5.5 5.9 7.1 6.8 6.0 4.7 4.2 4.3 4.0 4.1 4.2 4.0 4.4 4.8
2.1 3.0 3.4 3.7 4.0 4.1 4.8 5.6 6.4 7.8 6.7 6.6 6.0 5.1 4.8 5.0 4.4 3.9 3.7 4.0 4.6 4.8
3.9 4.0 3.4 4.0 4.2 5.0 6.2 7.6 6.4 5.4 6.1 6.2 5.8 5.4 4.9 4.6 3.5 3.7 3.8 3.6 3.8 4.3
3.7 3.8 4.3 4.9 5.8 6.4 5.2 4.8 5.1 6.3 5.9 5.2 4.7 4.4 4.9 4.7 3.3 3.1 3.0 3.3 3.7 4.0
3.4 3.9 5.4 6.0 4.9 4.4 5.1 5.5 5.4 4.8 4.1 3.8 4.5 4.7 4.8 4.4 2.9 2.6 3.0 3.6 4.0 3.5
5.8 6.2 5.1 4.3 4.5 5.1 4.9 4.2 3.6 4.0 3.6 4.0 3.8 4.4 4.6 4.1 2.5 2.8 3.2 3.8 3.5 4.5
5.7 5.0 4.4 4.5 4.7 4.0 3.9 3.6 3.2 3.4 3.4 3.4 2.7 3.7 4.6 4.3 2.0 2.9 3.6 3.4 4.0 5.5
4.8 4.9 4.8 4.2 3.7 3.2 2.7 2.6 2.3 2.4 1.9 1.9 2.3 2.6 4.5 5.0 2.9 3.8 4.1 4.4 4.3 4.4
Wind_Speed
7 6 5 6 7 6 6 6 11 11 15 7 5 5 3 2 4 3 1 2 3 3
5 7 7 9 9 6 7 6 6 11 6 7 7 2 6 4 4 3 3 4 4 3
10 11 10 10 10 10 9 10 12 8 8 9 9 9 9 5 4 4 3 3 4 2
10 10 12 12 13 14 11 11 9 7 9 6 6 8 5 6 6 6 5 4 4 4
11 11 10 9 10 10 9 10 6 7 6 5 5 6 6 6 6 6 6 6 4 5
10 10 8 8 8 2 4 4 4 5 4 4 5 5 6 7 6 6 7 6 6 6
5 5 5 4 5 6 6 7 6 5 4 5 6 6 7 7 7 6 6 6 5 5
8 8 8 7 5 4 5 6 4 1 4 6 6 5 6 6 7 7 6 6 5 5
9 7 8 8 8 7 7 5 0 4 9 6 3 7 11 8 6 7 6 6 6 5
10 11 10 9 6 4 3 3 5 6 5 6 7 9 10 11 6 6 6 6 5 4
12 10 7 5 3 3 3 5 5 6 7 6 6 8 10 11 6 6 6 5 4 6
7 4 3 2 3 5 5 5 4 5 6 6 7 10 11 7 6 6 7 7 7 7
3 1 2 5 5 3 3 5 4 6 6 7 7 9 11 10 4 6 6 6 7 12
1 3 4 3 2 3 5 5 6 6 6 7 7 8 12 13 5 6 5 6 5 6
Wind_Direction
178 178 165 158 152 147 142 137 140 111 120 142 101 91 108 114 190 158 159 226 230 245
150 137 131 122 120 123 124 116 90 121 153 118 146 242 220 189 190 176 204 226 226 218
155 142 133 131 136 142 133 141 160 157 160 190 202 200 184 188 195 185 204 201 177 171
149 146 142 156 159 162 157 161 173 180 199 184 180 191 186 192 196 203 198 193 193 219
149 155 152 153 156 155 165 181 182 189 171 175 188 192 196 205 196 199 204 210 198 224
161 163 158 149 148 161 139 155 137 134 168 189 218 211 215 214 206 212 215 201 202 209
142 111 114 109 132 149 151 136 152 163 195 226 232 229 217 208 214 218 217 206 203 222
105 111 123 127 104 81 98 97 94 25 290 258 239 236 220 218 218 218 212 205 209 244
110 103 98 85 81 81 72 72 235 263 251 264 255 248 237 221 211 202 204 214 217 213
91 87 82 82 91 110 178 250 262 274 289 271 265 243 248 233 209 200 207 215 220 226
94 99 115 129 154 215 254 255 258 275 277 279 276 259 251 232 209 201 214 213 209 231
116 123 134 174 248 252 245 267 275 273 279 275 276 266 255 214 205 209 219 213 201 215
91 104 212 231 247 260 268 279 282 279 272 266 271 274 261 213 190 215 228 229 214 226
229 259 267 281 276 294 294 290 284 275 271 276 263 270 255 230 202 224 229 227 224 216